Flag for Canada Weather past 2 weeks in Whistler, British Columbia, Canada

Now
45 °F

Cool.


Feels Like: 45 °F
Forecast: 41 / 56 °F
Wind: 1 mph from Northeast

Location: Squamish Airport

Current Time: Oct 1, 2014 at 3:39:56 AM

Latest Report: Oct 1, 2014 at 3:00 AM


Visibility: N/A

Pressure: 30.13 "Hg

Humidity: 96%

Dew point: 44 °F

Location of WhistlerLocation

Historic Weather in Whistler — Graph

°F

Whistler temperature yesterday

Maximum temperature yesterday: 65 °F (at 2:00 PM)
Minimum temperature yesterday: 47 °F (at 10:00 PM)
Average temperature yesterday: 56 °F

Past Weeks' High & Low Weather Summary

 TemperatureHumidityPressure
High83 °F (Sep 21, 2:00 PM)100% (Sep 22, 11:00 PM)30.16 "Hg (Sep 22, 11:00 PM)
Low45 °F (Oct 1, 2:00 AM)27% (Sep 16, 1:00 PM)29.60 "Hg (Sep 24, 4:00 AM)
Average59 °F84%29.89 "Hg
* Reported Sep 16 2:00 AM — Oct 1 2:00 AM, Whistler, Weather by CustomWeather, © 2014

Note: Actual official high and low records may vary slightly from our data, if they occured in-between our weather recording intervals... More about our weather records

Advertising

Whistler weather history for previous 24 hours

 ConditionsComfort  
Time TempWeatherWind HumidityBarometerVisibility
2:00 AM
Oct 1
45 °FCool.No wind96%30.11 "HgN/A
1:00 AM47 °FCool.1 mph96%30.11 "HgN/A
12:00 AM47 °FCool.1 mph95%30.10 "HgN/A
11:00 PM
Sep 30
48 °FCool.1 mph90%30.08 "HgN/A
10:00 PM47 °FCool.2 mph100%30.08 "HgN/A
9:00 PM50 °FCool.1 mph94%30.06 "HgN/A
8:00 PM52 °FCool.No wind93%30.05 "HgN/A
7:00 PM54 °FCool.1 mph90%30.03 "HgN/A
6:00 PM57 °FCool.No wind82%30.01 "HgN/A
5:00 PM61 °FCool.1 mph66%30.00 "HgN/A
4:00 PM64 °FMild.2 mph58%30.00 "HgN/A
3:00 PM62 °FCool.3 mph64%30.00 "HgN/A
2:00 PM65 °FMild.6 mph56%30.01 "HgN/A
1:00 PM64 °FMild.6 mph57%30.01 "HgN/A
12:00 PM62 °FCool.5 mph63%30.01 "HgN/A
11:00 AM60 °FCool.2 mph66%30.01 "HgN/A
10:00 AM58 °FCool.No wind81%30.00 "HgN/A
8:00 AM53 °FCool.1 mph96%29.98 "HgN/A
7:00 AM53 °FCool.1 mph97%29.96 "HgN/A
6:00 AM52 °FCool.No wind97%29.95 "HgN/A
5:00 AM53 °FCool.No wind97%29.93 "HgN/A
4:00 AM53 °FCool.2 mph97%29.93 "HgN/A
3:00 AM53 °FCool.1 mph97%29.91 "HgN/A
Weather by CustomWeather, © 2014

See weather overviewHow to use our weather pages